Regional Weather Roundup
Issued by NWS Bismarck, ND

Home | Current Version | Previous Version | Text Only | Print | Product List | Glossary On
Versions: 1 2 3 4 5 6 7 8 9 10 11 12 13 14 15 16 17 18 19 20 21 22 23 24 25 26 27 28 29 30 31 32 33 34 35 36 37 38 39 40 41 42 43 44 45 46 47 48 49 50
028
ASUS43 KBIS 010802
RWRBIS

NWR BROADCAST TEXT
NATIONAL WEATHER SERVICE BISMARCK ND
300 AM CDT SUN MAY 01 2016

NOTE: "FAIR" INDICATES FEW OR NO CLOUDS BELOW 12,000 FEET WITH NO
SIGNIFICANT WEATHER AND/OR OBSTRUCTIONS TO VISIBILITY.


CITY           SKY/WX    TMP DP  RH WIND       PRES   REMARKS
WILLISTON      CLEAR     42  29  59 NW3       30.32F
MINOT          CLEAR     40  27  59 NW5       30.31S
MINOT AFB      CLEAR     30  26  83 NW6       30.30F
BISMARCK       CLEAR     35  30  82 CALM      30.29S
DICKINSON      CLEAR     32  26  78 NW7       30.28S
GARRISON         N/A     35  29  78 N6        30.30S
HETTINGER ARPT CLEAR     28  24  85 CALM      30.30S
JAMESTOWN      CLEAR     35  28  75 N8        30.24S
CARRINGTON     FAIR      39  27  60 N6        30.30S
OAKES            N/A    N/A N/A N/A MISG        N/A
STANLEY        FAIR      36  28  75 CALM      30.35S
$$

CITY           SKY/WX    TMP DP  RH WIND       PRES   REMARKS
GRAND FORKS    CLEAR     34  27  75 N5        30.26S
GRAND FORKS AF CLEAR     35  25  66 N6        30.27R
DEVILS LAKE    CLEAR     36  29  75 N7        30.29F
FARGO          CLEAR     40  27  59 CALM      30.24R
CAVALIER       FAIR      39  30  70 N5        30.30S
GRAFTON        FAIR      37  28  70 N9        30.30S
GWINNER        FAIR      37  32  81 N6        30.23S
LANGDON        FAIR      30  23  74 N3        30.30F
$$

CITY           SKY/WX    TMP DP  RH WIND       PRES   REMARKS
ABERDEEN       CLEAR     35  30  82 N6        30.21R
MOBRIDGE       CLEAR     44  30  57 NE15      30.20S
BUFFALO          N/A     40  26  57 N7        30.22S
RAPID CITY     CLEAR     34  29  82 N9        30.24S
GLASGOW        PTCLDY    40  30  67 E6        30.32S
SIDNEY         CLEAR     36  30  80 NW5       30.32F
WOLF POINT     CLEAR     36  31  82 CALM      30.33S
GLENDIVE       CLEAR     37  30  75 NW8       30.34S
MILES CITY     CLEAR     43  33  68 N3        30.31S
BAKER          CLEAR     34  27  75 CALM      30.31F
$$

CITY           SKY/WX    TMP DP  RH WIND       PRES   REMARKS
BILLINGS       CLOUDY    39  32  76 NW7       30.31F
GREAT FALLS    CLEAR     35  31  85 CALM      30.33S
$$





USA.gov is the U.S. government's official web portal to all federal, state and local government web resources and services.